Waarnemingen

Advertentie
Mijn weer
Westdorpe aws, Nederland (6319): temperatuur & dauwpunt: 17.07.2017 08:00:00 - 23.07.2017 08:00:00 (CEST)Westdorpe aws, Nederland (6319): temperatuur 5cm: 17.07.2017 08:00:00 - 23.07.2017 08:00:00 (CEST)Westdorpe aws, Nederland (6319): windsnelheid & windstoten: 17.07.2017 08:00:00 - 23.07.2017 08:00:00 (CEST)Westdorpe aws, Nederland (6319): windrichting: 17.07.2017 08:00:00 - 23.07.2017 08:00:00 (CEST)Westdorpe aws, Nederland (6319): luchtdruk: 17.07.2017 08:00:00 - 23.07.2017 08:00:00 (CEST)Westdorpe aws, Nederland (6319): zicht: 17.07.2017 08:00:00 - 23.07.2017 08:00:00 (CEST)Westdorpe aws, Nederland (6319): neerslag: 17.07.2017 08:00:00 - 23.07.2017 08:00:00 (CEST)
Datum & Tijd tt [°C] td [°C] tt 5cm [°C] ff [km/u] ff [kn] fx [km/u] fx [kn] dd ppp [hPa] vv [km] rr [mm]
23.07.2017 08:00:00 14,2 12,5 14,0 18 10 29 16 Z 1011,8 31 0,0
23.07.2017 07:00:00 13,3 12,2 13,2 14 8 22 12 Z 1011,8 28 0,0
23.07.2017 06:00:00 12,9 11,7 12,5 11 6 22 12 Z 1011,8 25 0,0
23.07.2017 05:00:00 12,6 11,6 11,4 7 4 14 8 Z 1011,9 21 0,0
23.07.2017 04:00:00 12,4 11,5 10,5 7 4 14 8 Z 1011,7 13 0,0
23.07.2017 03:00:00 13,0 12,8 9,7 4 2 7 4 ZZO 1011,7 4,1 0,0
23.07.2017 02:00:00 13,4 13,1 11,8 4 2 7 4 ZZW 1011,6 6 0,0
23.07.2017 01:00:00 14,5 14,1 13,9 4 2 7 4 Z 1012,0 9 0,0
23.07.2017 00:00:00 15,0 14,4 14,8 7 4 22 12 N 1011,8 13 1,7
22.07.2017 23:00:00 16,3 14,8 16,0 7 4 18 10 WNW 1012,0 13 0,4
22.07.2017 22:00:00 16,6 14,7 15,5 7 4 11 6 N 1011,4 37 0,0
22.07.2017 21:00:00 18,7 14,7 18,4 7 4 25 14 NW 1010,6 48 0,0
22.07.2017 20:00:00 20,3 13,9 20,1 11 6 22 12 WZW 1010,5 50 0,0
22.07.2017 19:00:00 21,5 13,9 22,3 14 8 29 16 Z 1010,3 44 0,0
22.07.2017 18:00:00 20,5 16,4 20,8 14 8 22 12 Z 1010,7 46 0,0
22.07.2017 17:00:00 18,2 17,5 17,6 11 6 40 21 ZZW 1010,8 12 5,2
22.07.2017 16:00:00 22,6 15,1 24,8 14 8 40 21 Z 1010,6 26 0,0
22.07.2017 15:00:00 22,7 14,8 22,5 18 10 32 18 Z 1011,1 40 0,0
22.07.2017 14:00:00 21,3 13,7 21,3 14 8 29 16 Z 1011,3 40 0,0
22.07.2017 13:00:00 22,1 13,4 22,9 18 10 29 16 ZZW 1010,9 37 0,0
22.07.2017 12:00:00 21,5 13,0 22,9 18 10 29 16 ZZW 1010,8 43 0,0
22.07.2017 11:00:00 20,6 12,6 21,1 18 10 29 16 Z 1010,9 44 0,0
22.07.2017 10:00:00 21,0 11,8 23,2 18 10 32 18 Z 1010,3 39 0,0
22.07.2017 09:00:00 20,3 11,4 21,4 18 10 25 14 Z 1010,2 37 0,0
22.07.2017 08:00:00 18,5 11,6 18,0 11 6 18 10 Z 1009,7 38 0,0
22.07.2017 07:00:00 16,4 11,1 15,4 7 4 11 6 ZZO 1009,5 48 0,0
22.07.2017 06:00:00 15,2 10,8 13,6 7 4 14 8 ZZO 1009,3 48 0,0
22.07.2017 05:00:00 15,4 11,7 14,3 7 4 14 8 ZZO 1009,3 40 0,0
22.07.2017 04:00:00 15,0 12,8 13,3 11 6 14 8 ZO 1009,3 26 0,0
22.07.2017 03:00:00 13,5 12,2 10,0 4 2 7 4 ZZO 1009,3 24 0,0
22.07.2017 02:00:00 14,5 12,6 12,1 7 4 11 6 Z 1009,8 25 0,0
22.07.2017 01:00:00 16,2 13,5 12,1 7 4 7 4 ZZW 1009,2 33 0,0
22.07.2017 00:00:00 15,5 12,7 13,3 7 4 11 6 ZZW 1008,9 41 0,0
21.07.2017 23:00:00 18,9 12,4 15,0 7 4 14 8 OZO 1008,6 49 0,0
21.07.2017 22:00:00 21,9 11,5 19,0 7 4 14 8 ZZO 1008,5 47 0,0
21.07.2017 21:00:00 23,0 12,2 22,3 11 6 22 12 O 1008,6 41 0,0
21.07.2017 20:00:00 23,4 11,3 22,8 14 8 25 14 O 1008,7 48 0,0
21.07.2017 19:00:00 25,1 11,2 25,7 11 6 25 14 O 1008,9 42 0,0
21.07.2017 18:00:00 25,6 10,1 27,1 11 6 25 14 ZO 1009,6 32 0,0
21.07.2017 17:00:00 25,2 9,8 27,0 11 6 25 14 OZO 1010,5 40 0,0
21.07.2017 16:00:00 25,4 9,8 27,9 14 8 25 14 ZZO 1011,3 35 0,0
21.07.2017 15:00:00 23,7 8,6 25,9 18 10 25 14 ZZO 1011,9 35 0,0
21.07.2017 14:00:00 22,3 10,2 24,6 11 6 25 14 OZO 1012,4 40 0,0
21.07.2017 13:00:00 22,5 9,3 25,7 11 6 25 14 OZO 1013,1 46 0,0
21.07.2017 12:00:00 21,4 9,2 24,3 11 6 22 12 ZO 1013,6 36 0,0
21.07.2017 11:00:00 20,3 9,7 22,6 11 6 18 10 ZZO 1014,0 41 0,0
21.07.2017 10:00:00 18,2 10,7 20,2 11 6 14 8 ZZO 1014,3 31 0,0
21.07.2017 09:00:00 16,1 11,1 17,0 11 6 14 8 Z 1014,5 29 0,0
21.07.2017 08:00:00 13,5 10,5 13,7 11 6 14 8 ZO 1014,2 26 0,0
21.07.2017 07:00:00 11,3 9,7 10,4 7 4 14 8 ZZO 1014,1 25 0,0
21.07.2017 06:00:00 10,9 9,6 10,0 11 6 14 8 ZZO 1014,0 23 0,0
21.07.2017 05:00:00 10,7 9,4 9,0 4 2 11 6 ZZO 1013,8 21 0,0
21.07.2017 04:00:00 11,7 9,8 10,2 7 4 14 8 Z 1013,9 23 0,0
21.07.2017 03:00:00 13,0 10,5 11,8 7 4 18 10 ZZW 1013,9 23 0,0
21.07.2017 02:00:00 14,1 10,5 13,1 14 8 18 10 ZW 1013,9 25 0,0
21.07.2017 01:00:00 13,5 10,1 11,8 11 6 18 10 ZZW 1013,9 31 0,0
21.07.2017 00:00:00 14,6 10,0 13,5 11 6 29 16 ZW 1013,7 38 0,0
20.07.2017 23:00:00 15,4 9,8 14,5 14 8 29 16 ZW 1013,3 39 0,0
20.07.2017 22:00:00 16,4 10,3 15,4 14 8 29 16 WZW 1013,0 41 0,0
20.07.2017 21:00:00 17,3 10,5 16,5 18 10 36 19 WZW 1012,3 42 0,0
20.07.2017 20:00:00 19,2 10,1 19,1 25 14 40 21 WZW 1011,7 40 0,0
20.07.2017 19:00:00 20,7 11,2 20,8 25 14 50 27 WZW 1011,0 33 0,0
20.07.2017 18:00:00 20,9 12,4 20,8 32 18 50 27 WZW 1010,2 37 0,0
20.07.2017 17:00:00 20,7 15,9 21,2 29 16 43 23 ZW 1009,6 34 0,0
20.07.2017 16:00:00 19,3 17,4 18,9 25 14 58 31 ZW 1008,9 33 0,8
20.07.2017 15:00:00 21,2 15,8 21,4 25 14 47 25 ZW 1008,2 50 0,0
20.07.2017 14:00:00 25,0 14,6 23,9 25 14 36 19 ZW 1007,3 38 0,0
20.07.2017 13:00:00 21,7 16,3 21,4 22 12 32 18 ZW 1007,6 39 0,0
20.07.2017 12:00:00 21,3 18,1 22,1 11 6 25 14 Z 1007,8 28 0,0
20.07.2017 11:00:00 19,8 18,3 19,7 14 8 29 16 WZW 1007,9 6 1,3
20.07.2017 10:00:00 20,4 17,9 20,1 18 10 25 14 ZZW 1007,6 17 0,0
20.07.2017 09:00:00 19,5 18,3 19,4 11 6 18 10 ZZW 1007,5 10 0,0
20.07.2017 08:00:00 19,1 18,9 19,1 7 4 11 6 W 1007,5 1,0 3,7
20.07.2017 07:00:00 19,0 18,6 18,9 4 2 11 6 ZZO 1007,1 3,3 0,0
20.07.2017 06:00:00 19,0 18,1 18,8 4 2 7 4 ZZO 1007,4 4,8 0,0
20.07.2017 05:00:00 18,6 18,1 18,0 4 2 7 4 OZO 1007,5 4,7 0,0
20.07.2017 04:00:00 19,1 17,9 18,5 4 2 11 6 Z 1007,6 7 0,0
20.07.2017 03:00:00 19,1 17,6 18,2 7 4 11 6 ZZO 1008,3 10 0,0
20.07.2017 02:00:00 18,4 17,4 17,0 7 4 7 4 OZO 1008,3 10 0,0
20.07.2017 01:00:00 18,8 17,5 17,5 4 2 7 4 ZZO 1008,4 15 0,0
20.07.2017 00:00:00 19,3 18,0 18,2 4 2 4 2 ONO 1008,6 16 0,0
19.07.2017 23:00:00 19,4 17,9 18,5 4 2 7 4 NNW 1008,6 18 0,0
19.07.2017 22:00:00 20,7 17,9 20,2 4 2 11 6 NNW 1008,6 18 0,0
19.07.2017 21:00:00 22,3 17,3 22,1 7 4 22 12 NW 1008,2 25 0,0
19.07.2017 20:00:00 22,7 17,2 22,6 11 6 25 14 NNW 1007,8 25 0,0
19.07.2017 19:00:00 24,0 17,7 23,7 14 8 29 16 NW 1007,4 26 0,0
19.07.2017 18:00:00 26,3 18,8 27,5 25 14 40 21 NNW 1007,0 23 0,0
19.07.2017 17:00:00 30,8 18,2 32,5 18 10 36 19 Z 1006,9 39 0,0
19.07.2017 16:00:00 29,8 18,4 31,1 18 10 36 19 Z 1007,4 30 0,0
19.07.2017 15:00:00 29,3 17,4 31,1 22 12 43 23 Z 1007,4 28 0,0
19.07.2017 14:00:00 29,0 16,5 29,5 25 14 58 31 Z 1007,4 32 0,0
19.07.2017 13:00:00 28,7 15,4 29,3 14 8 22 12 Z 1006,8 37 0,0
19.07.2017 12:00:00 26,7 17,2 26,8 14 8 40 21 ZZW 1007,6 37 0,0
19.07.2017 11:00:00 28,1 18,1 28,7 22 12 32 18 Z 1007,6 34 0,0
19.07.2017 10:00:00 26,9 18,0 27,6 11 6 25 14 Z 1007,2 39 0,0
19.07.2017 09:00:00 24,4 16,9 24,7 11 6 22 12 ZZO 1007,2 40 0,0
19.07.2017 08:00:00 21,4 16,5 20,8 11 6 18 10 OZO 1007,4 41 0,0
19.07.2017 07:00:00 20,3 15,7 19,3 11 6 22 12 OZO 1007,8 40 0,0
19.07.2017 06:00:00 20,1 15,1 18,7 11 6 22 12 OZO 1008,3 49 0,0
19.07.2017 05:00:00 19,9 14,6 18,6 14 8 22 12 O 1008,6 46 0,0
19.07.2017 04:00:00 20,3 14,3 18,8 11 6 22 12 O 1009,6 47 0,0
19.07.2017 03:00:00 20,9 14,0 19,5 11 6 18 10 O 1010,2 49 0,0
19.07.2017 02:00:00 21,5 13,9 20,2 11 6 - - O 1010,8 50 0,0
19.07.2017 01:00:00 22,2 13,8 21,0 14 8 25 14 ONO 1011,5 50 0,0
19.07.2017 00:00:00 20,9 14,2 19,2 11 6 18 10 ONO 1012,2 48 0,0
18.07.2017 23:00:00 21,5 14,2 19,8 14 8 - - ONO 1012,6 44 0,0
18.07.2017 22:00:00 22,8 14,5 21,4 14 8 25 14 ONO 1012,7 50 0,0
18.07.2017 21:00:00 23,7 14,9 22,5 14 8 25 14 ONO 1013,4 48 0,0
18.07.2017 20:00:00 25,5 15,1 24,9 22 12 - - ONO 1013,4 42 0,0
18.07.2017 19:00:00 26,6 15,2 26,8 22 12 29 16 ONO 1014,1 44 0,0
18.07.2017 18:00:00 27,1 15,6 28,2 18 10 29 16 ONO 1014,5 47 0,0
18.07.2017 17:00:00 27,4 14,9 29,1 18 10 - - O 1014,9 43 0,0
18.07.2017 16:00:00 27,6 13,3 29,4 18 10 32 18 O 1015,5 46 0,0
18.07.2017 15:00:00 26,5 14,0 28,6 18 10 36 19 ONO 1016,2 35 0,0
18.07.2017 14:00:00 25,7 14,5 28,0 22 12 - - ONO 1017,0 40 0,0
18.07.2017 13:00:00 25,1 15,0 28,4 22 12 32 18 ONO 1017,8 38 0,0
18.07.2017 12:00:00 24,9 16,1 26,5 18 10 32 18 O 1018,4 30 0,0
18.07.2017 11:00:00 22,6 15,1 24,7 14 8 22 12 ONO 1019,0 22 0,0
18.07.2017 10:00:00 20,2 15,0 20,9 11 6 18 10 ONO 1019,6 33 0,0
18.07.2017 09:00:00 18,8 14,1 19,7 14 8 22 12 ONO 1019,8 28 0,0
18.07.2017 08:00:00 16,3 13,7 15,9 11 6 14 8 ONO 1020,0 31 0,0
18.07.2017 07:00:00 13,0 12,1 12,2 7 4 11 6 NO 1020,2 19 0,0
18.07.2017 06:00:00 13,5 12,7 12,0 4 2 11 6 ONO 1020,4 27 0,0
18.07.2017 05:00:00 13,6 12,1 11,9 7 4 11 6 ONO 1020,5 35 0,0
18.07.2017 04:00:00 13,0 11,7 10,8 7 4 14 8 ONO 1021,0 35 0,0
18.07.2017 03:00:00 12,9 11,4 10,9 11 6 11 6 ONO 1021,4 31 0,0
18.07.2017 02:00:00 13,1 12,2 9,4 7 4 11 6 NO 1021,7 31 0,0
18.07.2017 01:00:00 13,3 12,5 10,5 7 4 11 6 NO 1021,9 23 0,0
18.07.2017 00:00:00 14,0 12,6 12,4 11 6 14 8 NO 1021,9 38 0,0
17.07.2017 23:00:00 14,8 12,7 13,1 11 6 14 8 NNO 1022,1 45 0,0
17.07.2017 22:00:00 16,5 13,6 15,3 11 6 18 10 NNO 1022,1 48 0,0
17.07.2017 21:00:00 19,5 12,9 18,8 11 6 29 16 NNO 1021,9 47 0,0
17.07.2017 20:00:00 21,2 11,3 20,8 18 10 25 14 NNO 1021,9 43 0,0
17.07.2017 19:00:00 22,8 11,7 23,5 18 10 25 14 NNO 1021,8 47 0,0
17.07.2017 18:00:00 23,2 13,5 24,1 14 8 25 14 NNO 1022,2 41 0,0
17.07.2017 17:00:00 23,8 13,3 25,7 14 8 22 12 NNO 1022,5 46 0,0
17.07.2017 16:00:00 23,4 14,2 25,1 11 6 22 12 NO 1022,7 39 0,0
17.07.2017 15:00:00 23,6 15,2 25,8 14 8 25 14 NO 1022,9 39 0,0
17.07.2017 14:00:00 23,6 14,5 25,8 11 6 22 12 ONO 1023,1 38 0,0
17.07.2017 13:00:00 22,4 15,1 25,4 11 6 18 10 NO 1023,2 41 0,0
17.07.2017 12:00:00 21,5 15,2 24,7 11 6 22 12 ONO 1023,3 29 0,0
17.07.2017 11:00:00 20,3 15,3 22,1 14 8 22 12 NO 1023,5 35 0,0
17.07.2017 10:00:00 19,8 15,9 20,3 11 6 18 10 O 1023,3 16 0,0
17.07.2017 09:00:00 18,3 16,9 18,3 14 8 18 10 ONO 1023,1 10 0,0
17.07.2017 08:00:00 18,0 17,5 18,0 14 8 22 12 NO 1022,7 5 0,0

tt = temperatuur
td = dauwpunt
tt 5cm = temperatuur 5cm
ff = windsnelheid
fx = windstoten
dd = windrichting
ppp = luchtdruk
vv = zicht
rr = neerslag

Weerstations in de omgeving